Location: Newark
(13.2833°S, 176.1833°W)
Time: 16:14:13
(UTC+00:00)

Hubble Space Telescope - Pass Details

Date: 19 November 2019
Orbit: 536 x 540 km, 28.5° (Epoch: 08 December)

Event Time Altitude Azimuth Distance (km) Brightness Sun altitude
Exits shadow 15:33:39 66° 355° (N) 583 0.7 -21.7°
Maximum altitude 15:33:57 70° 28° (NNE) 570 0.8 -21.6°
Drops below altitude 10° 15:38:04 10° 112° (ESE) 1,789 4.6 -20.7°
Sets 15:40:21 0° 114° (ESE) 2,681 5.9 -20.2°
